Time,TemperatureF,DewpointF,PressureIn,WindDirection,WindDirectionDegrees,WindSpeedMPH,WindSpeedGustMPH,Humidity,HourlyPrecipIn,Conditions,Clouds,dailyrainin,SolarRadiationWatts/m^2,SoftwareType,DateUTC
2013-04-01 00:02:00,19.0,15.0,-100.00,NNW,341,6.0,13.0,85,0.00,,,0.00,1.000000,,2013-04-01 05:02:00,
2013-04-01 00:12:00,19.0,15.0,-100.00,NNW,341,6.0,13.0,85,0.00,,,0.00,1.000000,,2013-04-01 05:12:00,
2013-04-01 00:22:00,19.0,15.0,-100.00,NNW,341,6.0,13.0,85,0.00,,,0.00,1.000000,,2013-04-01 05:22:00,
2013-04-01 00:32:00,19.0,15.0,-100.00,NNW,341,6.0,13.0,85,0.00,,,0.00,1.000000,,2013-04-01 05:32:00,
2013-04-01 01:02:00,19.0,16.0,-100.00,NNW,346,8.0,15.0,87,0.00,,,0.00,1.000000,,2013-04-01 06:02:00,
2013-04-01 01:12:00,19.0,16.0,-100.00,NNW,346,8.0,15.0,87,0.00,,,0.00,1.000000,,2013-04-01 06:12:00,
2013-04-01 01:23:00,19.0,16.0,-100.00,NNW,346,8.0,15.0,87,0.00,,,0.00,1.000000,,2013-04-01 06:23:00,
2013-04-01 01:33:00,19.0,16.0,-100.00,NNW,346,8.0,15.0,87,0.00,,,0.00,1.000000,,2013-04-01 06:33:00,
2013-04-01 02:02:00,18.0,14.0,-100.00,NNW,345,7.0,13.0,83,0.00,,,0.00,1.000000,,2013-04-01 07:02:00,
2013-04-01 02:12:00,18.0,14.0,-100.00,NNW,345,7.0,13.0,83,0.00,,,0.00,1.000000,,2013-04-01 07:12:00,
2013-04-01 02:22:00,18.0,14.0,-100.00,NNW,345,7.0,13.0,83,0.00,,,0.00,1.000000,,2013-04-01 07:22:00,
2013-04-01 02:32:00,18.0,14.0,-100.00,NNW,345,7.0,13.0,83,0.00,,,0.00,1.000000,,2013-04-01 07:32:00,
2013-04-01 03:03:00,18.0,12.0,-100.00,NNW,348,5.0,9.0,77,0.00,,,0.00,1.000000,,2013-04-01 08:03:00,
2013-04-01 03:12:00,18.0,12.0,-100.00,NNW,348,5.0,9.0,77,0.00,,,0.00,1.000000,,2013-04-01 08:12:00,
2013-04-01 03:22:00,18.0,12.0,-100.00,NNW,348,5.0,9.0,77,0.00,,,0.00,1.000000,,2013-04-01 08:22:00,
2013-04-01 03:32:00,18.0,12.0,-100.00,NNW,348,5.0,9.0,77,0.00,,,0.00,1.000000,,2013-04-01 08:32:00,
2013-04-01 04:02:00,18.0,11.0,-100.00,NNW,345,8.0,13.0,75,0.00,,,0.00,1.000000,,2013-04-01 09:02:00,
2013-04-01 04:12:00,18.0,11.0,-100.00,NNW,345,8.0,13.0,75,0.00,,,0.00,1.000000,,2013-04-01 09:12:00,
2013-04-01 04:22:00,18.0,11.0,-100.00,NNW,345,8.0,13.0,75,0.00,,,0.00,1.000000,,2013-04-01 09:22:00,
2013-04-01 04:33:00,18.0,11.0,-100.00,NNW,345,8.0,13.0,75,0.00,,,0.00,1.000000,,2013-04-01 09:33:00,
2013-04-01 05:03:00,17.0,11.0,-100.00,NNW,344,6.0,14.0,76,0.00,,,0.00,1.000000,,2013-04-01 10:03:00,
2013-04-01 05:12:00,17.0,11.0,-100.00,NNW,344,6.0,14.0,76,0.00,,,0.00,1.000000,,2013-04-01 10:12:00,
2013-04-01 05:23:00,17.0,11.0,-100.00,NNW,344,6.0,14.0,76,0.00,,,0.00,1.000000,,2013-04-01 10:23:00,
2013-04-01 05:33:00,17.0,11.0,-100.00,NNW,344,6.0,14.0,76,0.00,,,0.00,1.000000,,2013-04-01 10:33:00,
2013-04-01 06:03:00,17.0,11.0,-100.00,NNW,346,7.0,12.0,78,0.00,,,0.00,1.000000,,2013-04-01 11:03:00,
2013-04-01 06:13:00,17.0,11.0,-100.00,NNW,346,7.0,12.0,78,0.00,,,0.00,1.000000,,2013-04-01 11:13:00,
2013-04-01 06:23:00,17.0,11.0,-100.00,NNW,346,7.0,12.0,78,0.00,,,0.00,1.000000,,2013-04-01 11:23:00,
2013-04-01 06:33:00,17.0,11.0,-100.00,NNW,346,7.0,12.0,78,0.00,,,0.00,1.000000,,2013-04-01 11:33:00,
2013-04-01 07:02:00,17.0,12.0,-100.00,NNW,339,5.0,11.0,80,0.00,,,0.00,1.000000,,2013-04-01 12:02:00,
2013-04-01 07:12:00,17.0,12.0,-100.00,NNW,339,5.0,11.0,80,0.00,,,0.00,1.000000,,2013-04-01 12:12:00,
2013-04-01 07:23:00,17.0,12.0,-100.00,NNW,339,5.0,11.0,80,0.00,,,0.00,1.000000,,2013-04-01 12:23:00,
2013-04-01 07:32:00,17.0,12.0,-100.00,NNW,339,5.0,11.0,80,0.00,,,0.00,1.000000,,2013-04-01 12:32:00,
2013-04-01 08:03:00,17.0,10.0,-100.00,NNW,346,7.0,16.0,74,0.00,,,0.00,15.000000,,2013-04-01 13:03:00,
2013-04-01 08:12:00,17.0,10.0,-100.00,NNW,346,7.0,16.0,74,0.00,,,0.00,15.000000,,2013-04-01 13:12:00,
2013-04-01 08:22:00,17.0,10.0,-100.00,NNW,346,7.0,16.0,74,0.00,,,0.00,15.000000,,2013-04-01 13:22:00,
2013-04-01 08:32:00,17.0,10.0,-100.00,NNW,346,7.0,16.0,74,0.00,,,0.00,15.000000,,2013-04-01 13:32:00,
2013-04-01 09:04:00,19.0,7.0,-100.00,North,349,10.0,19.0,59,0.00,,,0.00,108.000000,,2013-04-01 14:04:00,
2013-04-01 09:12:00,19.0,7.0,-100.00,North,349,10.0,19.0,59,0.00,,,0.00,108.000000,,2013-04-01 14:12:00,
2013-04-01 09:22:00,19.0,7.0,-100.00,North,349,10.0,19.0,59,0.00,,,0.00,108.000000,,2013-04-01 14:22:00,
2013-04-01 09:32:00,19.0,7.0,-100.00,North,349,10.0,19.0,59,0.00,,,0.00,108.000000,,2013-04-01 14:32:00,
2013-04-01 10:03:00,22.0,7.0,-100.00,North,353,10.0,24.0,51,0.00,,,0.00,301.000000,,2013-04-01 15:03:00,
2013-04-01 10:13:00,22.0,7.0,-100.00,North,353,10.0,24.0,51,0.00,,,0.00,301.000000,,2013-04-01 15:13:00,
2013-04-01 10:22:00,22.0,7.0,-100.00,North,353,10.0,24.0,51,0.00,,,0.00,301.000000,,2013-04-01 15:22:00,
2013-04-01 10:34:00,22.0,7.0,-100.00,North,353,10.0,24.0,51,0.00,,,0.00,301.000000,,2013-04-01 15:34:00,
2013-04-01 11:03:00,22.0,11.0,-100.00,NW,325,9.0,18.0,63,0.00,,,0.00,295.000000,,2013-04-01 16:03:00,
2013-04-01 11:13:00,22.0,11.0,-100.00,NW,325,9.0,18.0,63,0.00,,,0.00,295.000000,,2013-04-01 16:13:00,
2013-04-01 11:23:00,22.0,11.0,-100.00,NW,325,9.0,18.0,63,0.00,,,0.00,295.000000,,2013-04-01 16:23:00,
2013-04-01 11:33:00,22.0,11.0,-100.00,NW,325,9.0,18.0,63,0.00,,,0.00,295.000000,,2013-04-01 16:33:00,
2013-04-01 13:03:00,25.0,6.0,-100.00,NNW,344,12.0,22.0,43,-99.99,,,0.01,484.000000,,2013-04-01 18:03:00,
2013-04-01 13:12:00,25.0,6.0,-100.00,NNW,344,12.0,22.0,43,-99.99,,,0.01,484.000000,,2013-04-01 18:12:00,
2013-04-01 13:22:00,25.0,6.0,-100.00,NNW,344,12.0,22.0,43,-99.99,,,0.01,484.000000,,2013-04-01 18:22:00,
2013-04-01 13:32:00,25.0,6.0,-100.00,NNW,344,12.0,22.0,43,-99.99,,,0.01,484.000000,,2013-04-01 18:32:00,
2013-04-01 14:03:00,27.0,7.0,-100.00,North,353,11.0,23.0,42,0.00,,,0.01,695.000000,,2013-04-01 19:03:00,
2013-04-01 14:13:00,27.0,7.0,-100.00,North,353,11.0,23.0,42,0.00,,,0.01,695.000000,,2013-04-01 19:13:00,
2013-04-01 14:23:00,27.0,7.0,-100.00,North,353,11.0,23.0,42,0.00,,,0.01,695.000000,,2013-04-01 19:23:00,
2013-04-01 14:32:00,27.0,7.0,-100.00,North,353,11.0,23.0,42,0.00,,,0.01,695.000000,,2013-04-01 19:32:00,
2013-04-01 15:02:00,26.0,4.0,-100.00,NNW,330,11.0,21.0,38,0.00,,,0.01,794.000000,,2013-04-01 20:02:00,
2013-04-01 15:13:00,26.0,4.0,-100.00,NNW,330,11.0,21.0,38,0.00,,,0.01,794.000000,,2013-04-01 20:13:00,
2013-04-01 15:22:00,26.0,4.0,-100.00,NNW,330,11.0,21.0,38,0.00,,,0.01,794.000000,,2013-04-01 20:22:00,
2013-04-01 15:32:00,26.0,4.0,-100.00,NNW,330,11.0,21.0,38,0.00,,,0.01,794.000000,,2013-04-01 20:32:00,
2013-04-01 16:02:00,25.0,3.0,-100.00,NNW,342,11.0,24.0,38,0.00,,,0.01,665.000000,,2013-04-01 21:02:00,
2013-04-01 16:12:00,25.0,3.0,-100.00,NNW,342,11.0,24.0,38,0.00,,,0.01,665.000000,,2013-04-01 21:12:00,
2013-04-01 16:23:00,25.0,3.0,-100.00,NNW,342,11.0,24.0,38,0.00,,,0.01,665.000000,,2013-04-01 21:23:00,
2013-04-01 16:32:00,25.0,3.0,-100.00,NNW,342,11.0,24.0,38,0.00,,,0.01,665.000000,,2013-04-01 21:32:00,
2013-04-01 17:02:00,27.0,3.0,-100.00,NNW,348,10.0,26.0,35,0.00,,,0.01,444.000000,,2013-04-01 22:02:00,
2013-04-01 17:12:00,27.0,3.0,-100.00,NNW,348,10.0,26.0,35,0.00,,,0.01,444.000000,,2013-04-01 22:12:00,
2013-04-01 17:22:00,27.0,3.0,-100.00,NNW,348,10.0,26.0,35,0.00,,,0.01,444.000000,,2013-04-01 22:22:00,
2013-04-01 17:33:00,27.0,3.0,-100.00,NNW,348,10.0,26.0,35,0.00,,,0.01,444.000000,,2013-04-01 22:33:00,
2013-04-01 18:02:00,27.0,3.0,-100.00,NNW,345,10.0,20.0,35,0.00,,,0.01,325.000000,,2013-04-01 23:02:00,
2013-04-01 18:12:00,27.0,3.0,-100.00,NNW,345,10.0,20.0,35,0.00,,,0.01,325.000000,,2013-04-01 23:12:00,
2013-04-01 18:23:00,27.0,3.0,-100.00,NNW,345,10.0,20.0,35,0.00,,,0.01,325.000000,,2013-04-01 23:23:00,
2013-04-01 18:32:00,27.0,3.0,-100.00,NNW,345,10.0,20.0,35,0.00,,,0.01,325.000000,,2013-04-01 23:32:00,
2013-04-01 19:03:00,25.0,2.0,-100.00,NNW,337,9.0,17.0,37,0.00,,,0.01,170.000000,,2013-04-02 00:03:00,
2013-04-01 19:12:00,25.0,2.0,-100.00,NNW,337,9.0,17.0,37,0.00,,,0.01,170.000000,,2013-04-02 00:12:00,
2013-04-01 19:22:00,25.0,2.0,-100.00,NNW,337,9.0,17.0,37,0.00,,,0.01,170.000000,,2013-04-02 00:22:00,
2013-04-01 19:33:00,25.0,2.0,-100.00,NNW,337,9.0,17.0,37,0.00,,,0.01,170.000000,,2013-04-02 00:33:00,
2013-04-01 20:02:00,24.0,3.0,-100.00,NW,324,4.0,12.0,40,0.00,,,0.01,16.000000,,2013-04-02 01:02:00,
2013-04-01 20:12:00,24.0,3.0,-100.00,NW,324,4.0,12.0,40,0.00,,,0.01,16.000000,,2013-04-02 01:12:00,
2013-04-01 20:22:00,24.0,3.0,-100.00,NW,324,4.0,12.0,40,0.00,,,0.01,16.000000,,2013-04-02 01:22:00,
2013-04-01 20:32:00,24.0,3.0,-100.00,NW,324,4.0,12.0,40,0.00,,,0.01,16.000000,,2013-04-02 01:32:00,
2013-04-01 21:03:00,20.0,4.0,-100.00,WNW,288,1.0,4.0,48,0.00,,,0.01,1.000000,,2013-04-02 02:03:00,
2013-04-01 21:12:00,20.0,4.0,-100.00,WNW,288,1.0,4.0,48,0.00,,,0.01,1.000000,,2013-04-02 02:12:00,
2013-04-01 21:22:00,20.0,4.0,-100.00,WNW,288,1.0,4.0,48,0.00,,,0.01,1.000000,,2013-04-02 02:22:00,
2013-04-01 21:32:00,20.0,4.0,-100.00,WNW,288,1.0,4.0,48,0.00,,,0.01,1.000000,,2013-04-02 02:32:00,
2013-04-01 22:02:00,18.0,5.0,-100.00,WSW,245,2.0,4.0,56,0.00,,,0.01,1.000000,,2013-04-02 03:02:00,
2013-04-01 22:12:00,18.0,5.0,-100.00,WSW,245,2.0,4.0,56,0.00,,,0.01,1.000000,,2013-04-02 03:12:00,
2013-04-01 22:22:00,18.0,5.0,-100.00,WSW,245,2.0,4.0,56,0.00,,,0.01,1.000000,,2013-04-02 03:22:00,
2013-04-01 22:33:00,18.0,5.0,-100.00,WSW,245,2.0,4.0,56,0.00,,,0.01,1.000000,,2013-04-02 03:33:00,
2013-04-01 23:03:00,16.0,6.0,-100.00,SW,226,2.0,5.0,63,0.00,,,0.01,1.000000,,2013-04-02 04:03:00,
2013-04-01 23:13:00,16.0,6.0,-100.00,SW,226,2.0,5.0,63,0.00,,,0.01,1.000000,,2013-04-02 04:13:00,
2013-04-01 23:23:00,16.0,6.0,-100.00,SW,226,2.0,5.0,63,0.00,,,0.01,1.000000,,2013-04-02 04:23:00,
2013-04-01 23:32:00,16.0,6.0,-100.00,SW,226,2.0,5.0,63,0.00,,,0.01,1.000000,,2013-04-02 04:32:00,